Temp
18 19 19 19 20 21 20 19 18 18 18 18 18 18 19 18 18 18 18 18 17 16 16 16 16 16 18 18 18 18 17 18 18 18 18 16 16 15 15 16 16 15 16
18 19 19 19 20 20 20 20 19 18 18 18 18 19 19 19 19 19 17 17 16 16 16 16 16 18 19 20 19 18 17 17 18 18 17 16 15 15 15 16 16 15 15
19 19 19 19 20 20 20 20 19 19 18 18 18 19 19 19 19 18 17 17 16 16 16 16 17 18 19 19 19 19 17 17 17 17 17 16 15 15 15 16 15 15 15
18 18 18 18 19 19 19 19 18 17 17 18 18 19 18 19 18 17 17 17 16 16 16 16 17 18 18 18 18 18 17 17 17 17 16 16 15 15 15 16 15 15 15
18 18 18 18 18 18 17 18 18 17 18 18 19 19 19 18 17 18 18 18 18 18 18 17 18 18 18 18 18 18 18 17 17 17 16 16 15 15 15 16 16 15 14
18 18 18 19 19 18 18 18 18 18 18 18 18 18 18 18 18 18 19 19 19 19 19 19 18 18 18 18 18 18 18 17 17 16 16 15 15 15 14 15 16 15 14
17 18 18 18 18 18 18 17 18 18 18 18 18 19 18 18 18 19 19 19 19 19 19 19 19 17 18 17 17 17 17 17 17 16 16 15 14 14 14 14 14 14 14
17 17 17 17 18 18 18 17 18 18 18 18 18 18 18 18 18 19 19 18 18 18 18 18 18 18 17 17 17 17 17 16 16 16 15 14 14 14 13 13 13 13 12
17 16 15 16 16 17 18 18 18 18 18 18 18 18 18 18 18 19 18 18 18 18 18 18 18 18 18 17 17 16 16 16 16 15 15 14 14 13 13 13 13 13 12
15 15 15 15 15 16 17 18 18 18 18 18 18 18 18 18 18 18 18 18 17 17 17 17 17 17 17 17 16 16 16 16 15 15 15 14 14 13 12 12 12 12 12
15 14 15 15 16 17 17 18 18 18 18 18 18 18 17 17 18 18 18 18 17 17 17 17 17 17 16 16 16 16 15 15 15 15 14 14 14 13 12 12 11 11 11
13 14 16 16 17 16 16 17 17 17 17 18 18 17 17 18 17 17 17 17 17 17 17 16 16 16 16 16 15 15 15 15 14 14 14 13 13 13 12 11 11 11 11
14 15 16 16 16 16 16 17 17 17 17 18 17 17 17 17 17 17 17 17 17 16 16 16 15 15 15 15 15 15 14 14 14 14 13 13 13 13 12 11 11 10 10
14 15 15 16 16 17 17 17 17 17 17 17 17 17 17 17 17 17 17 16 16 16 15 15 15 15 15 14 14 14 13 13 13 13 13 13 12 12 12 11 11 10 10
14 15 16 16 17 16 17 17 17 17 17 17 17 17 17 17 17 16 16 16 15 15 15 15 15 14 14 13 13 12 12 12 12 12 12 12 12 12 11 11 11 10 9
15 16 17 17 17 17 17 17 17 17 17 16 16 17 17 17 17 16 15 15 15 15 14 14 14 14 13 13 12 12 12 11 11 11 11 12 12 11 10 10 10 10 10
16 17 17 17 17 17 17 17 16 17 16 16 16 17 17 16 16 16 15 15 14 14 14 13 13 13 12 12 11 11 11 10 10 10 10 11 10 9 9 9 9 9 9
17 17 17 17 17 17 17 17 17 16 16 16 16 16 16 16 16 15 15 14 14 13 13 13 12 12 11 11 10 10 10 10 9 9 9 9 9 9 9 9 9 9 9
17 17 17 18 17 17 17 17 16 16 16 16 16 16 15 15 15 15 14 14 13 13 13 12 12 11 10 10 10 9 9 9 9 8 8 8 8 8 8 8 8 8 8
17 17 18 17 17 17 17 16 15 15 15 16 16 15 14 14 14 14 14 13 13 13 13 12 11 10 10 9 9 9 9 8 8 8 8 8 7 7 7 7 7 7 7
17 17 17 17 17 16 15 14 15 15 15 15 14 14 14 14 14 14 14 13 13 13 12 11 11 10 9 8 8 8 9 8 7 8 8 8 7 7 6 6 6 6 6
17 17 17 17 16 16 16 16 15 15 14 14 14 14 14 14 14 14 14 13 13 12 11 10 10 9 9 8 8 6 4 6 7 8 7 7 6 6 6 6 5 5 5
16 17 17 17 17 16 16 15 15 14 14 13 13 13 13 14 14 14 13 13 12 11 11 10 9 9 8 8 7 7 4 3 4 6 6 6 6 5 5 5 5 5 5
16 17 17 16 16 16 16 15 16 15 14 14 14 14 13 13 13 13 13 12 11 11 10 9 9 8 8 8 7 7 7 6 2 2 5 5 5 5 5 4 4 4 4
15 15 15 14 14 15 15 15 15 15 15 14 14 13 13 13 13 12 12 11 11 10 9 9 8 8 7 7 6 6 6 5 5 2 0 3 4 4 5 4 4 4 4
15 14 14 15 16 16 15 15 15 15 14 14 13 13 13 12 11 11 11 10 9 9 9 8 8 7 7 6 6 6 5 5 4 3 -0 1 2 3 3 3 4 3 3
Height
790 793 796 799 802 802 804 807 814 817 816 819 820 821 822 824 825 829 831 832 833 834 835 836 837 836 837 837 837 837 840 840 840 840 839 838 839 840 840 840 838 838 837
788 793 797 800 801 803 804 804 813 820 821 822 821 822 824 825 826 828 833 833 836 838 838 839 840 840 838 837 836 838 842 843 842 843 841 841 841 842 842 840 841 839 839
789 794 797 801 803 804 806 806 810 821 823 824 822 823 827 827 828 829 832 835 838 839 842 843 842 841 839 838 839 840 844 845 846 845 844 845 844 845 844 841 841 840 840
791 795 799 803 806 808 810 808 812 822 825 825 823 825 829 829 830 832 833 838 840 842 843 844 844 843 842 843 843 844 847 847 847 847 848 848 847 848 843 845 843 842 842
793 796 799 803 806 811 818 814 818 823 828 828 823 828 830 831 833 834 835 839 841 844 845 847 846 845 846 846 846 847 849 850 849 850 850 851 849 850 845 847 845 844 846
797 799 801 804 808 807 820 820 819 826 830 829 828 830 832 834 835 836 838 842 843 846 847 849 848 847 847 848 849 850 850 852 852 851 852 853 851 852 849 849 848 846 847
798 801 805 810 811 810 820 825 820 826 830 831 830 831 835 836 836 839 840 844 846 848 849 850 850 850 849 850 851 853 851 852 854 852 854 853 854 853 851 851 851 849 849
799 803 808 813 817 813 825 827 823 826 831 834 833 834 838 839 840 842 845 847 849 849 850 851 850 851 852 854 853 854 855 854 854 854 855 855 855 854 853 851 851 852 850
802 806 809 817 821 823 828 826 827 829 833 835 835 837 840 843 843 844 847 850 851 851 851 853 853 853 852 855 856 857 856 855 855 855 856 855 857 856 854 853 852 852 850
806 810 812 815 821 825 827 828 828 831 835 837 837 840 843 844 845 848 850 851 852 853 854 855 854 853 855 856 857 857 857 855 855 857 857 857 858 857 855 853 854 853 852
808 811 814 823 825 828 829 829 830 833 836 839 841 843 846 847 848 850 850 852 852 854 855 856 855 854 856 858 857 857 858 857 857 857 856 857 858 858 857 854 854 854 853
812 819 821 823 824 830 832 833 833 835 838 840 842 845 848 848 850 851 852 853 854 856 857 856 857 857 858 859 859 859 857 857 858 859 858 858 857 859 858 856 854 854 853
816 818 823 824 826 830 833 833 834 838 841 841 844 845 848 850 851 851 853 853 856 856 858 859 858 857 859 861 861 861 859 857 857 858 858 859 859 859 858 857 856 855 854
814 816 819 826 827 830 834 835 836 838 841 843 846 847 848 850 851 851 854 854 857 857 860 860 859 860 860 861 862 862 859 858 859 858 858 858 858 859 858 857 856 855 854
816 819 821 825 828 830 833 837 837 840 843 843 845 845 847 849 850 852 852 857 857 860 862 860 859 862 862 862 862 861 859 859 859 858 858 857 857 858 858 857 857 857 855
816 818 821 824 828 830 833 836 839 842 843 843 845 844 848 849 850 852 855 855 858 863 861 860 862 862 862 861 862 860 859 860 859 857 857 856 856 857 858 858 858 857 856
815 817 819 823 826 828 834 835 838 841 843 842 843 845 849 849 849 853 856 855 860 861 860 860 862 863 862 862 861 861 860 860 859 858 857 856 856 857 858 857 857 857 856
813 816 819 821 827 829 831 837 837 842 841 842 844 846 849 849 850 854 855 856 859 861 861 860 862 862 862 862 862 862 861 861 861 860 859 859 859 859 859 858 857 856 855
813 816 818 821 825 829 832 835 839 840 841 842 844 846 847 849 852 853 856 856 858 859 860 860 861 863 863 863 863 864 862 862 862 861 860 860 860 860 859 858 856 855 853
813 815 818 821 825 829 831 836 838 840 841 842 844 845 847 850 851 853 854 856 857 858 859 860 861 863 863 863 863 863 861 862 862 861 860 859 859 859 858 857 855 853 852
812 815 817 820 823 826 830 833 835 837 839 841 844 846 848 849 850 851 854 856 856 857 858 859 861 863 862 861 861 861 860 860 860 860 859 859 859 858 857 856 854 852 851
809 812 815 817 820 824 828 830 833 836 840 843 844 845 846 848 849 850 852 853 854 855 857 859 860 860 861 861 862 861 861 860 857 857 857 857 856 856 855 854 852 850 848
802 804 808 812 816 821 826 830 833 836 839 841 841 841 844 846 847 849 851 851 853 855 856 857 858 859 860 861 861 862 863 863 858 856 855 855 855 854 853 851 850 848 846
791 799 804 809 813 819 823 826 827 829 831 833 836 840 843 845 847 849 851 852 855 855 855 855 857 859 860 860 859 860 860 858 858 856 853 853 853 852 850 848 847 845 843
796 799 803 808 813 816 820 822 825 825 828 831 836 840 843 846 849 850 853 855 855 856 857 858 856 856 858 858 858 857 856 854 854 854 851 849 849 849 847 846 844 842 840
794 800 801 803 807 812 814 817 821 823 827 831 835 839 843 846 849 852 854 855 859 858 858 857 858 857 856 855 854 852 852 849 849 851 849 846 844 842 843 842 841 840 838
Wind_Speed
28 26 27 27 27 28 30 30 28 27 28 27 27 25 25 24 25 24 24 24 23 21 21 22 22 23 23 20 19 19 20 20 21 22 20 23 22 21 21 21 22 21 20
31 29 29 29 28 29 30 31 27 25 25 25 25 25 25 25 26 27 25 24 21 21 22 23 24 25 21 16 15 17 20 22 21 20 20 21 21 20 21 21 21 22 22
33 31 31 30 30 30 29 30 27 23 22 22 24 25 25 26 27 27 26 24 22 22 23 25 27 28 27 28 26 25 24 21 20 21 23 22 22 20 21 21 21 21 21
31 31 30 30 30 29 28 29 28 22 21 22 24 25 25 26 26 26 27 25 24 23 24 26 31 34 31 31 29 28 22 21 22 23 23 23 23 20 22 21 21 20 19
30 31 31 30 30 28 25 26 25 22 21 22 25 25 25 25 25 27 28 27 27 26 27 28 31 32 30 26 24 22 22 22 23 23 23 22 22 20 21 21 20 19 18
26 29 31 31 31 31 24 25 25 21 21 22 24 24 23 24 25 27 28 28 28 27 26 26 29 30 29 28 25 21 22 21 21 22 21 20 20 18 20 20 20 19 18
26 28 29 28 28 30 24 24 24 22 21 22 24 24 23 24 27 27 28 27 26 25 24 23 22 27 27 27 26 22 18 18 17 19 18 18 17 17 18 19 19 18 16
22 27 26 26 21 26 22 22 23 22 21 22 23 23 23 25 26 26 26 24 22 21 20 21 21 20 24 23 23 21 18 15 15 16 16 16 15 15 16 17 17 18 17
25 27 26 21 17 20 18 20 20 21 21 21 22 22 23 24 24 24 23 21 19 18 18 17 16 15 17 19 18 17 17 16 14 16 15 13 12 12 13 15 15 16 16
28 27 25 22 20 17 19 20 19 20 20 20 21 22 23 22 22 20 19 18 17 16 15 14 16 15 12 12 15 15 14 14 13 13 13 11 9 9 11 12 13 14 14
27 29 30 28 20 14 16 17 19 20 21 20 21 21 20 19 19 17 17 16 16 15 14 13 13 13 11 10 10 10 11 11 10 10 10 9 8 7 9 10 11 11 12
24 30 29 27 20 17 20 20 20 21 22 21 22 20 19 18 16 15 15 14 12 12 11 12 12 12 11 11 10 11 13 11 12 11 9 8 8 6 7 8 9 9 10
30 25 22 24 20 22 21 21 21 21 20 22 21 19 17 15 14 13 13 11 9 9 11 11 11 12 11 9 9 10 11 12 13 13 10 7 6 5 4 6 7 8 9
30 31 29 25 21 22 20 21 21 22 21 20 17 16 14 14 11 11 10 10 10 13 14 12 11 10 9 9 9 8 10 12 12 11 10 6 5 4 1 4 5 6 8
22 22 28 21 24 21 21 20 21 21 19 17 16 14 12 14 12 12 11 14 15 14 12 10 9 7 9 10 10 10 13 14 12 11 11 9 7 2 1 3 3 4 5
24 23 24 23 24 22 24 23 23 21 18 16 15 14 14 15 14 15 18 18 15 11 10 9 9 8 10 10 10 11 12 13 14 14 14 11 4 4 6 4 4 4 3
25 23 25 28 26 25 25 24 22 20 19 16 15 13 14 16 17 19 19 16 14 10 8 9 8 8 9 11 11 9 11 14 10 12 14 9 6 9 8 6 5 3 2
24 23 28 27 26 25 25 24 22 23 19 16 14 15 16 16 17 18 17 15 13 10 6 6 8 10 11 10 9 9 12 11 8 12 15 18 14 8 4 6 5 3 1
23 29 32 30 28 27 26 24 24 22 18 16 14 14 16 16 18 16 15 15 11 7 5 6 8 9 7 8 5 8 12 2 7 10 14 13 11 9 9 8 8 6 4
24 28 29 31 29 27 26 25 23 20 17 15 14 15 18 19 17 16 14 13 9 6 5 5 6 6 5 5 3 14 5 6 5 5 15 11 10 9 5 6 3 3 3
26 30 30 32 31 31 29 26 22 20 17 17 18 21 19 19 17 14 13 11 8 4 4 3 2 4 3 7 4 10 3 8 6 4 21 9 16 7 8 9 6 6 4
33 34 31 33 35 33 31 28 24 22 19 20 22 20 18 17 16 13 10 9 8 5 5 5 4 2 3 7 5 3 2 5 4 18 4 11 0 7 12 11 11 10 8
37 39 38 38 38 36 32 27 19 21 16 19 21 20 19 16 15 13 10 9 9 7 8 5 3 3 3 3 4 2 2 3 5 2 8 2 10 14 11 13 12 11 6
43 41 41 40 40 38 33 29 25 24 18 21 24 23 21 18 15 13 11 10 9 9 8 6 4 3 4 3 4 2 6 10 3 3 4 9 9 11 19 14 13 10 8
29 35 36 36 37 37 32 29 24 19 19 19 24 23 21 18 16 15 13 13 10 8 6 3 2 3 3 3 4 5 7 8 10 9 4 6 9 15 17 15 15 12 10
28 30 35 40 41 36 33 28 24 21 22 21 23 22 21 18 14 13 12 11 7 4 2 3 4 6 6 8 9 10 10 6 5 8 5 8 10 12 16 12 14 8 11
Wind_Direction
162 158 161 150 143 133 129 124 120 119 120 118 117 117 115 113 109 108 105 99 93 89 86 83 82 85 83 85 91 94 93 86 81 76 72 72 67 64 61 57 58 55 51
155 160 163 153 146 140 136 130 125 123 122 122 121 119 117 115 113 109 104 99 93 89 86 84 84 79 79 86 102 104 99 89 80 75 70 70 68 63 58 56 53 50 45
156 163 162 155 150 145 141 135 129 130 126 125 122 118 118 116 114 111 107 101 96 90 87 86 82 76 83 84 90 97 100 90 78 74 72 70 67 62 56 53 49 46 44
161 164 159 155 149 143 139 132 131 132 130 129 122 120 121 118 115 111 106 104 98 93 90 87 84 81 88 84 90 100 95 89 83 76 71 69 66 59 57 51 49 45 42
161 161 160 154 146 138 137 130 129 133 136 133 125 126 123 120 117 113 110 107 102 95 91 88 84 82 83 86 90 92 91 88 82 77 72 66 63 57 53 46 44 43 40
160 162 159 156 147 138 141 141 137 137 142 134 130 127 125 121 118 115 112 109 104 99 93 89 86 82 84 81 85 94 89 81 77 75 70 64 60 54 50 44 40 36 33
160 164 155 150 146 140 145 149 138 143 142 139 134 131 128 125 123 119 116 112 107 101 94 89 85 78 81 81 83 89 86 81 74 70 65 59 58 54 50 43 34 32 27
150 153 146 142 153 134 149 147 142 142 146 144 137 132 130 128 123 120 116 112 105 101 96 95 90 82 80 80 77 72 74 76 71 64 56 56 54 57 54 51 36 26 32
139 135 135 138 139 138 147 144 145 148 149 144 138 134 133 130 125 121 118 110 102 96 95 93 94 91 82 75 68 62 57 59 66 52 57 63 55 54 54 53 39 29 36
134 136 127 122 132 149 158 154 150 150 149 146 140 137 137 131 126 121 115 108 100 95 98 99 91 91 86 75 68 61 50 44 44 42 48 70 60 59 64 62 44 30 35
124 125 124 138 148 177 165 158 155 154 150 147 142 141 137 132 126 122 116 111 108 110 105 100 97 91 91 78 60 52 52 53 43 41 42 45 47 60 67 72 62 45 40
123 137 139 138 171 186 174 168 162 157 155 152 148 143 140 133 127 123 121 119 123 116 115 110 106 96 83 70 57 47 54 54 46 35 34 44 54 60 72 76 74 66 40
151 141 164 176 187 184 178 170 164 162 160 153 153 150 144 133 132 127 130 130 138 132 131 126 111 91 78 61 50 44 51 50 45 43 46 54 42 35 71 83 77 76 61
171 170 180 184 187 184 182 175 168 165 163 160 160 159 155 148 142 140 147 153 145 139 139 127 102 84 70 55 47 45 47 45 39 34 29 24 28 17 68 110 86 79 78
172 188 187 194 193 185 180 181 170 169 169 171 178 179 176 165 163 161 152 152 142 141 135 117 99 77 64 55 52 50 43 38 23 7 359 0 10 65 195 127 71 44 67
186 191 195 195 193 185 185 181 176 178 178 169 165 159 166 173 168 159 153 147 141 142 120 99 84 65 54 49 42 30 26 19 11 0 352 342 355 111 121 89 45 22 64
195 198 200 195 192 187 187 182 180 186 184 172 167 169 181 177 165 161 157 147 146 134 117 91 72 59 50 32 32 26 23 11 15 40 40 35 104 123 112 71 48 36 22
193 203 194 187 191 188 186 195 191 191 182 181 180 180 182 173 167 166 159 151 144 134 113 77 57 47 32 37 29 27 5 355 62 67 64 63 69 83 77 41 34 27 331
195 196 193 191 190 192 192 191 189 188 185 185 182 178 173 171 170 167 163 149 148 135 92 52 49 40 58 39 47 353 335 359 107 69 36 23 14 1 340 331 328 299 273
196 191 190 190 192 190 185 181 177 178 180 181 181 175 166 166 163 164 156 154 155 138 88 63 61 48 70 19 345 351 334 137 111 16 4 10 17 358 11 356 329 284 280
195 192 188 186 185 182 178 176 175 175 174 173 175 175 172 168 165 167 163 162 158 139 103 99 84 127 64 21 33 8 90 169 291 345 338 343 317 314 338 321 310 329 318
199 200 194 191 188 191 192 187 184 177 181 183 180 177 177 180 178 177 177 174 175 173 175 167 149 121 53 27 22 34 9 294 240 319 183 327 322 315 322 310 317 313 289
197 201 200 197 197 197 197 189 184 184 185 183 181 181 186 189 189 194 192 185 184 185 174 166 120 66 41 9 23 20 8 247 309 210 290 232 320 308 306 308 310 304 289
199 200 202 202 201 201 199 197 194 195 187 199 194 193 191 194 199 203 198 197 192 186 173 145 105 35 349 339 331 217 264 267 226 314 216 283 302 299 310 301 303 282 291
193 196 198 201 205 204 202 205 211 214 213 209 200 197 197 196 206 206 208 201 188 164 128 80 11 348 327 308 300 300 298 279 258 240 275 248 261 303 311 295 294 285 311
194 197 200 205 209 208 206 211 217 216 209 205 202 201 196 202 202 196 193 171 138 90 6 342 349 335 322 320 315 309 287 260 238 249 255 271 268 296 299 289 278 289 325